Location: Azat
(46.0765°N, 1.7600°E)
Time: 10:12:56
(UTC+00:00)

Cosmos 1726 - Pass Details

Date: 09 April 2020
Orbit: 482 x 499 km, 82.5° (Epoch: 04 June)

Event Time Altitude Azimuth Distance (km) Brightness Sun altitude
Rises 19:00:23 0° 186° (S) 2,579 5.6 -5.5°
Reaches altitude 10° 19:02:30 10° 186° (S) 1,700 4.7 -5.8°
Maximum altitude 19:06:13 86° 98° (E) 507 2.1 -6.4°
Drops below altitude 10° 19:09:59 10° 10° (N) 1,711 5.0 -7.0°
Sets 19:12:06 0° 10° (N) 2,597 5.9 -7.4°
